• In Uzbekistan
  • List of Countries
  • For 7 days
  • Water Temperature
  • Weather Map
  • Weather Widgets
  • user-avatar
    Login

    Hourly Weather Sidi Bu-l-Abbas

    Today, 22 November, Friday

    Time Temperature Precipitation Wind Pressure Humidity
    00:00 +13°C° 0 mm 3 mps 716 mmHg 62%
    01:00 +13°C° 0 mm 3 mps 715 mmHg 62%
    02:00 +14°C° 0 mm 2 mps 715 mmHg 63%
    03:00 +14°C° 0 mm 2 mps 715 mmHg 64%
    04:00 +14°C° 0 mm 2 mps 715 mmHg 64%
    05:00 +13°C° 0 mm 2 mps 715 mmHg 65%
    06:00 +13°C° 0 mm 2 mps 715 mmHg 66%
    07:00 +13°C° 0 mm 3 mps 715 mmHg 64%
    08:00 +14°C° 0 mm 3 mps 715 mmHg 61%
    09:00 +15°C° 0 mm 4 mps 715 mmHg 59%
    10:00 +17°C° 0 mm 5 mps 715 mmHg 54%
    11:00 +19°C° 0 mm 6 mps 714 mmHg 48%
    12:00 +21°C° 0 mm 7 mps 714 mmHg 41%
    13:00 +20°C° 0 mm 7 mps 714 mmHg 45%
    14:00 +20°C° 0 mm 7 mps 713 mmHg 49%
    15:00 +18°C° 0 mm 7 mps 712 mmHg 52%
    16:00 +17°C° 0.1 mm 7 mps 712 mmHg 57%
    17:00 +17°C° 0.1 mm 7 mps 712 mmHg 62%
    18:00 +16°C° 0.1 mm 6 mps 712 mmHg 67%
    19:00 +16°C° 0 mm 7 mps 712 mmHg 64%
    20:00 +16°C° 0 mm 7 mps 712 mmHg 61%
    21:00 +16°C° 0 mm 8 mps 712 mmHg 58%
    22:00 +17°C° 0 mm 8 mps 711 mmHg 58%
    23:00 +17°C° 0 mm 9 mps 711 mmHg 58%

    Tomorrow, 23 November, Saturday

    Time Temperature Precipitation Wind Pressure Humidity
    00:00 +17°C° 0 mm 9 mps 711 mmHg 58%
    01:00 +17°C° 0 mm 9 mps 710 mmHg 60%
    02:00 +16°C° 0 mm 9 mps 710 mmHg 63%
    03:00 +16°C° 0 mm 10 mps 709 mmHg 65%
    04:00 +14°C° 0.3 mm 10 mps 710 mmHg 73%
    05:00 +13°C° 0.3 mm 10 mps 710 mmHg 81%
    06:00 +12°C° 0.3 mm 10 mps 710 mmHg 89%
    07:00 +12°C° 0.5 mm 11 mps 711 mmHg 85%
    08:00 +12°C° 0.5 mm 12 mps 711 mmHg 81%
    09:00 +12°C° 0.5 mm 13 mps 712 mmHg 77%
    10:00 +12°C° 0.2 mm 14 mps 713 mmHg 74%
    11:00 +12°C° 0.2 mm 14 mps 713 mmHg 71%
    12:00 +11°C° 0.2 mm 15 mps 713 mmHg 68%
    13:00 +11°C° 0 mm 15 mps 713 mmHg 67%
    14:00 +11°C° 0 mm 15 mps 713 mmHg 65%
    15:00 +11°C° 0 mm 15 mps 713 mmHg 63%
    16:00 +12°C° 0 mm 13 mps 714 mmHg 66%
    17:00 +10°C° 0 mm 12 mps 714 mmHg 69%
    18:00 +9°C° 0 mm 11 mps 715 mmHg 72%
    19:00 +9°C° 0 mm 10 mps 715 mmHg 75%
    20:00 +10°C° 0 mm 9 mps 716 mmHg 77%
    21:00 +10°C° 0 mm 8 mps 717 mmHg 80%
    22:00 +9°C° 0 mm 8 mps 717 mmHg 81%
    23:00 +9°C° 0 mm 7 mps 717 mmHg 82%

    Day after tomorrow, 24 November, Sunday

    Time Temperature Precipitation Wind Pressure Humidity
    00:00 +9°C° 0 mm 7 mps 717 mmHg 84%
    01:00 +9°C° 0.1 mm 6 mps 717 mmHg 84%
    02:00 +9°C° 0.1 mm 6 mps 717 mmHg 85%
    03:00 +9°C° 0.1 mm 6 mps 717 mmHg 85%
    04:00 +8°C° 0 mm 6 mps 717 mmHg 86%
    05:00 +8°C° 0 mm 6 mps 718 mmHg 86%
    06:00 +8°C° 0 mm 6 mps 718 mmHg 86%
    07:00 +9°C° 0 mm 7 mps 718 mmHg 82%
    08:00 +10°C° 0 mm 8 mps 719 mmHg 79%
    09:00 +11°C° 0 mm 9 mps 720 mmHg 75%
    10:00 +11°C° 0 mm 10 mps 720 mmHg 71%
    11:00 +12°C° 0 mm 10 mps 720 mmHg 67%
    12:00 +13°C° 0 mm 11 mps 720 mmHg 62%
    13:00 +12°C° 0 mm 11 mps 720 mmHg 63%
    14:00 +12°C° 0 mm 10 mps 719 mmHg 64%
    15:00 +12°C° 0 mm 10 mps 719 mmHg 65%
    16:00 +11°C° 0 mm 9 mps 719 mmHg 70%
    17:00 +10°C° 0 mm 7 mps 720 mmHg 74%
    18:00 +10°C° 0 mm 6 mps 720 mmHg 78%
    19:00 +9°C° 0 mm 5 mps 720 mmHg 79%
    20:00 +9°C° 0 mm 5 mps 720 mmHg 80%
    21:00 +9°C° 0 mm 5 mps 721 mmHg 81%
    22:00 +9°C° 0 mm 5 mps 721 mmHg 81%
    23:00 +10°C° 0 mm 4 mps 721 mmHg 81%

    25 November, Monday

    Time Temperature Precipitation Wind Pressure Humidity
    00:00 +10°C° 0 mm 4 mps 721 mmHg 81%
    01:00 +8°C° 0 mm 4 mps 720 mmHg 81%
    02:00 +9°C° 0 mm 3 mps 720 mmHg 81%
    03:00 +9°C° 0 mm 2 mps 720 mmHg 80%
    04:00 +9°C° 0 mm 2 mps 720 mmHg 80%
    05:00 +9°C° 0 mm 2 mps 720 mmHg 79%
    06:00 +9°C° 0 mm 2 mps 720 mmHg 78%
    07:00 +10°C° 0 mm 3 mps 721 mmHg 74%
    08:00 +11°C° 0 mm 3 mps 721 mmHg 69%
    09:00 +12°C° 0 mm 4 mps 722 mmHg 65%
    10:00 +13°C° 0 mm 4 mps 722 mmHg 61%
    11:00 +14°C° 0 mm 5 mps 722 mmHg 58%
    12:00 +15°C° 0 mm 5 mps 722 mmHg 54%
    13:00 +16°C° 0 mm 5 mps 722 mmHg 55%
    14:00 +16°C° 0 mm 5 mps 721 mmHg 56%
    15:00 +16°C° 0 mm 5 mps 721 mmHg 57%
    16:00 +16°C° 0 mm 3 mps 721 mmHg 63%
    17:00 +15°C° 0 mm 2 mps 721 mmHg 69%
    18:00 +13°C° 0 mm 1 mps 721 mmHg 75%
    19:00 +13°C° 0 mm 1 mps 721 mmHg 74%
    20:00 +13°C° 0 mm 1 mps 722 mmHg 73%
    21:00 +13°C° 0 mm 2 mps 722 mmHg 72%
    22:00 +13°C° 0 mm 2 mps 722 mmHg 71%
    23:00 +13°C° 0 mm 2 mps 721 mmHg 71%

    26 November, Tuesday

    Time Temperature Precipitation Wind Pressure Humidity
    00:00 +13°C° 0 mm 2 mps 721 mmHg 70%
    01:00 +13°C° 0 mm 2 mps 721 mmHg 70%
    02:00 +13°C° 0 mm 2 mps 721 mmHg 70%
    03:00 +13°C° 0 mm 2 mps 721 mmHg 69%
    04:00 +13°C° 0 mm 2 mps 721 mmHg 69%
    05:00 +12°C° 0 mm 2 mps 721 mmHg 68%
    06:00 +12°C° 0 mm 2 mps 720 mmHg 68%
    07:00 +14°C° 0 mm 2 mps 721 mmHg 65%
    08:00 +15°C° 0 mm 2 mps 721 mmHg 61%
    09:00 +16°C° 0 mm 2 mps 721 mmHg 58%
    10:00 +18°C° 0 mm 3 mps 721 mmHg 54%
    11:00 +19°C° 0 mm 3 mps 721 mmHg 49%
    12:00 +20°C° 0 mm 3 mps 721 mmHg 45%
    13:00 +20°C° 0 mm 3 mps 721 mmHg 45%
    14:00 +20°C° 0 mm 3 mps 720 mmHg 46%
    15:00 +20°C° 0 mm 3 mps 720 mmHg 46%
    16:00 +18°C° 0 mm 2 mps 720 mmHg 54%
    17:00 +18°C° 0 mm 1 mps 720 mmHg 62%
    18:00 +14°C° 0 mm 0 mps 719 mmHg 70%
    19:00 +14°C° 0 mm 0 mps 720 mmHg 68%
    20:00 +15°C° 0 mm 1 mps 720 mmHg 67%
    21:00 +15°C° 0 mm 1 mps 720 mmHg 66%
    22:00 +15°C° 0 mm 1 mps 720 mmHg 65%
    23:00 +14°C° 0 mm 1 mps 720 mmHg 64%

    27 November, Wednesday

    Time Temperature Precipitation Wind Pressure Humidity
    00:00 +14°C° 0 mm 1 mps 719 mmHg 63%
    01:00 +14°C° 0 mm 1 mps 719 mmHg 63%
    02:00 +14°C° 0 mm 1 mps 719 mmHg 63%
    03:00 +14°C° 0 mm 1 mps 719 mmHg 62%
    04:00 +13°C° 0 mm 1 mps 719 mmHg 63%
    05:00 +13°C° 0 mm 1 mps 719 mmHg 64%
    06:00 +13°C° 0 mm 1 mps 718 mmHg 65%
    07:00 +14°C° 0 mm 1 mps 719 mmHg 61%
    08:00 +16°C° 0 mm 1 mps 720 mmHg 57%
    09:00 +18°C° 0 mm 1 mps 720 mmHg 53%
    10:00 +18°C° 0 mm 2 mps 720 mmHg 50%
    11:00 +19°C° 0 mm 2 mps 720 mmHg 47%
    12:00 +20°C° 0 mm 2 mps 720 mmHg 44%
    13:00 +20°C° 0 mm 2 mps 719 mmHg 44%
    14:00 +20°C° 0 mm 2 mps 719 mmHg 43%
    15:00 +20°C° 0 mm 3 mps 719 mmHg 43%
    16:00 +19°C° 0 mm 2 mps 719 mmHg 52%
    17:00 +18°C° 0 mm 1 mps 719 mmHg 60%
    18:00 +16°C° 0 mm 1 mps 719 mmHg 68%
    19:00 +16°C° 0 mm 1 mps 719 mmHg 68%
    20:00 +15°C° 0 mm 1 mps 719 mmHg 68%
    21:00 +15°C° 0 mm 1 mps 719 mmHg 68%
    22:00 +15°C° 0 mm 1 mps 719 mmHg 66%
    23:00 +15°C° 0 mm 1 mps 719 mmHg 65%
    Show more